KW6V-15 Weather Reports


time (UTC)temp
C
wind
direction
speed
KPH
gust
KPH
rain 1hr
cm
rain 24hr
cm
rain mn
cm
humidity
%
barometer
mb
20260506083020 11 0 0.0 0.0 0.00 0.00 0.00 89 1019.4
20260506073025 11 0 0.0 0.0 0.00 0.00 0.00 89 1019.2
20260506070104 11 0 0.0 0.0 0.00 0.00 0.03 89 1019.0
20260506043046 12 0 0.0 0.0 0.00 0.00 0.03 88 1018.0
20260506040043 12 0 0.0 1.6 0.00 0.00 0.03 88 1017.4
20260506033042 12 0 0.0 3.2 0.00 0.00 0.03 87 1017.0
20260506030059 12 0 0.0 0.0 0.00 0.00 0.03 87 1016.8
20260506023021 13 0 0.0 4.8 0.00 0.00 0.03 85 1016.5
20260506020047 13 0 0.0 1.6 0.00 0.00 0.03 83 1016.3
20260506013031 13 0 0.0 3.2 0.00 0.00 0.03 84 1016.2
20260506010118 13 0 0.0 3.2 0.00 0.00 0.03 84 1016.2
20260506003042 13 0 0.0 3.2 0.00 0.00 0.03 84 1016.1
20260506000041 13 0 0.0 1.6 0.00 0.00 0.03 85 1016.2
20260505233037 13 0 0.0 3.2 0.00 0.00 0.03 85 1016.3
20260505230022 14 0 0.0 3.2 0.00 0.00 0.03 84 1016.4
20260505223105 15 0 0.0 6.4 0.00 0.00 0.03 83 1016.5
20260505220040 15 0 0.0 6.4 0.00 0.00 0.03 82 1016.4
20260505213023 15 0 0.0 4.8 0.00 0.00 0.03 80 1016.3
20260505210051 15 0 0.0 4.8 0.00 0.00 0.03 82 1016.2
20260505203052 15 0 0.0 4.8 0.00 0.00 0.03 82 1016.3
20260505200039 15 0 0.0 3.2 0.00 0.00 0.03 81 1016.2
20260505193041 15 0 0.0 3.2 0.00 0.00 0.03 82 1016.3
20260505190041 15 0 0.0 3.2 0.00 0.00 0.03 81 1016.0
20260505183106 14 0 0.0 1.6 0.00 0.00 0.03 81 1016.0
20260505180038 14 0 0.0 1.6 0.00 0.00 0.03 83 1015.8
20260505173034 14 0 0.0 3.2 0.00 0.00 0.03 84 1015.7
20260505170049 13 0 0.0 3.2 0.00 0.00 0.03 85 1015.6
20260505163025 13 0 0.0 4.8 0.00 0.00 0.03 88 1015.5
20260505153108 12 0 0.0 0.0 0.00 0.00 0.03 92 1015.6
20260505150121 11 0 0.0 0.0 0.00 0.00 0.03 92 1015.4
20260505123120 11 0 0.0 0.0 0.00 0.00 0.03 92 1014.7
20260505120112 11 0 0.0 0.0 0.00 0.00 0.00 91 1014.7
20260505113045 11 0 0.0 0.0 0.00 0.00 0.00 91 1014.7
20260505100034 11 0 0.0 0.0 0.00 0.00 0.00 91 1014.7
20260505093029 11 0 0.0 0.0 0.00 0.00 0.00 91 1015.3